GW0458 Weather Reports


time (UTC)temp
C
wind
direction
speed
KPH
gust
KPH
rain 1hr
cm
rain 24hr
cm
rain mn
cm
humidity
%
barometer
mb
20260507055230 11 209 0.0 0.0 0.00 0.00 0.00 94 1029.1
20260507052225 11 208 0.0 0.0 0.00 0.00 0.00 92 1029.1
20260507045223 12 209 0.0 0.0 0.00 0.00 0.00 91 1028.9
20260507042219 12 201 0.0 0.0 0.00 0.00 0.00 91 1028.8
20260507035216 12 205 0.0 0.0 0.00 0.00 0.00 90 1028.9
20260507032211 12 200 1.6 1.6 0.00 0.00 0.00 88 1028.6
20260507025211 12 205 0.0 0.0 0.00 0.00 0.00 86 1028.3
20260507022209 13 200 0.0 0.0 0.00 0.00 0.00 86 1028.3
20260507015209 13 200 0.0 0.0 0.00 0.00 0.00 85 1028.3
20260507012206 13 204 0.0 1.6 0.00 0.00 0.00 85 1028.1
20260507005206 14 212 0.0 1.6 0.00 0.00 0.00 83 1028.2
20260507002201 13 212 0.0 1.6 0.00 0.00 0.00 84 1028.3
20260506235157 14 209 0.0 1.6 0.00 0.00 0.00 83 1028.5
20260506232154 13 207 0.0 0.0 0.00 0.00 0.00 84 1028.4
20260506225154 13 211 1.6 1.6 0.00 0.00 0.00 83 1028.4
20260506222150 13 210 0.0 0.0 0.00 0.00 0.00 86 1028.7
20260506215148 13 211 0.0 0.0 0.00 0.00 0.00 85 1028.7
20260506212147 13 211 1.6 1.6 0.00 0.00 0.00 86 1028.5
20260506205143 12 199 0.0 0.0 0.00 0.00 0.00 88 1028.7
20260506202138 12 210 0.0 0.0 0.00 0.00 0.00 89 1028.5
20260506195137 12 209 0.0 0.0 0.00 0.00 0.00 91 1028.5
20260506192136 12 209 0.0 0.0 0.00 0.00 0.00 94 1028.3
20260506185134 12 209 0.0 0.0 0.00 0.00 0.00 95 1028.2
20260506182133 12 213 1.6 1.6 0.00 0.00 0.00 97 1028.1
20260506175131 11 204 0.0 0.0 0.00 0.00 0.00 99 1027.7
20260506172126 11 208 0.0 0.0 0.00 0.00 0.00 99 1028.2
20260506165122 11 209 0.0 0.0 0.00 0.00 0.00 99 1027.8
20260506162117 11 191 0.0 0.0 0.00 0.00 0.00 99 1027.3
20260506155116 11 193 0.0 0.0 0.00 0.00 0.00 99 1027.7
20260506151850 11 192 0.0 0.0 0.00 0.00 0.00 99 1027.7
20260506144849 11 192 0.0 0.0 0.00 0.00 0.00 99 1027.5
20260506141846 11 190 1.6 1.6 0.00 0.00 0.00 99 1027.1
20260506134846 11 186 1.6 1.6 0.00 0.00 0.00 99 1027.0
20260506131845 11 196 0.0 0.0 0.00 0.00 0.00 99 1026.7
20260506124841 11 193 0.0 1.6 0.00 0.00 0.00 98 1026.9
20260506121837 11 194 0.0 0.0 0.00 0.00 0.00 97 1026.4
20260506114833 11 195 0.0 0.0 0.00 0.00 0.00 96 1026.3
20260506111829 11 203 0.0 0.0 0.00 0.00 0.00 95 1026.3
20260506104829 11 208 0.0 0.0 0.00 0.00 0.00 94 1026.0
20260506101825 11 206 0.0 0.0 0.00 0.00 0.00 93 1026.0
20260506094820 12 208 0.0 1.6 0.00 0.00 0.00 94 1025.7
20260506091818 12 206 0.0 0.0 0.00 0.00 0.00 94 1025.1
20260506084817 12 204 0.0 0.0 0.00 0.00 0.00 94 1025.1
20260506081816 12 189 0.0 1.6 0.00 0.00 0.00 93 1025.1
20260506071807 11 199 0.0 0.0 0.00 0.00 0.00 97 1024.9
20260506061807 12 208 0.0 0.0 0.00 0.00 0.00 94 1023.9